Location: Miami, Florida
(25.6830°N, 80.1700°W)
Time: 02:53:58
(UTC-04:00)

Tiangong 1 - Visible Passes

Search period start: 23 February 2018 00:00
Search period end: 05 March 2018 00:00
Orbit: 247 x 268 km, 42.8° (Epoch: 22 February)

Date Brightness Start Highest point End Pass type
(mag) Time Alt. Az. Time Alt. Az. Time Alt. Az.
23 Feb 3.6 06:16:52 12° SE 06:16:52 12° SE 06:17:08 10° SE visible
25 Feb 2.5 20:25:49 10° SSW 20:26:45 17° S 20:26:45 17° S visible
26 Feb 0.4 20:18:16 10° SW 20:20:29 50° SE 20:20:38 48° ESE visible
27 Feb 0.5 20:10:49 10° WSW 20:13:04 64° NW 20:14:14 24° NE visible
28 Feb 2.0 20:03:26 10° W 20:05:28 29° NW 20:07:30 10° NNE visible
01 Mar 2.9 19:56:06 10° WNW 19:57:42 17° NNW 19:59:17 10° NNE visible
02 Mar 3.4 19:49:15 10° NW 19:49:44 10° NNW 19:50:13 10° NNW visible
